Location: Leavitt
(49.1741°N, 113.4526°W)
Time: 17:43:41
(UTC+00:00)

Envisat - Visible Passes

Search period start: 08 June 2023 00:00
Search period end: 18 June 2023 00:00
Orbit: 763 x 765 km, 98.2° (Epoch: 08 June)

Date Brightness Start Highest point End Pass type
(mag) Time Alt. Az. Time Alt. Az. Time Alt. Az.
09 Jun 5.3 10:25:15 10° NE 10:29:08 22° E 10:33:00 10° SE visible
10 Jun 6.0 09:51:03 10° E 09:51:27 10° E 09:51:53 10° E visible
12 Jun 5.5 10:13:15 10° NE 10:16:33 17° E 10:19:50 10° SE visible
14 Jun 4.9 10:37:12 10° NE 10:41:32 27° E 10:45:50 10° SSE visible
15 Jun 5.6 10:01:28 10° ENE 10:03:56 13° E 10:06:24 10° ESE visible
17 Jun 5.2 10:25:03 10° NE 10:28:58 22° E 10:32:51 10° SE visible
